Wind_Speed
24 25 26 26 27 29 29 30 30 31 32 33 33 31 29 27 24 22 21 21 22 22 23 23 24 24 24 25 25 24 24 23 22 23 23 22 21 21 21 21 21 22 23
15 16 17 18 20 21 23 23 24 24 23 23 21 20 19 18 17 17 18 20 21 21 22 22 23 23 23 23 24 23 23 23 22 22 22 21 21 21 21 21 21 21 22
7 7 8 9 10 10 11 11 11 11 11 12 12 11 12 14 15 17 18 19 20 21 21 22 22 22 22 23 23 23 22 22 21 22 21 21 20 21 21 21 21 22 22
3 1 0 0 0 1 1 2 3 4 5 7 8 10 12 13 15 16 18 19 21 21 21 22 22 22 22 22 23 22 22 21 21 21 22 21 21 20 21 21 22 23 23
8 7 7 6 5 4 3 2 3 5 6 8 10 11 13 14 16 18 19 20 21 22 22 21 21 21 21 22 22 22 22 22 21 21 20 21 21 19 19 20 21 21 21
9 9 8 7 6 5 5 5 6 7 9 11 12 13 14 16 18 20 21 22 22 22 22 22 21 21 21 21 21 21 22 22 22 21 21 20 20 19 18 18 19 19 19
9 9 8 7 6 7 7 8 9 11 12 13 15 16 17 19 20 22 23 23 23 23 23 22 21 21 21 21 21 21 21 21 21 21 21 20 19 18 17 17 18 17 18
11 10 10 10 10 10 10 10 11 13 14 15 17 18 20 21 22 23 24 24 24 24 23 22 21 20 20 20 20 20 20 20 20 20 20 20 19 19 17 17 17 17 17
13 12 12 12 12 12 12 12 13 14 16 17 19 20 21 22 23 23 23 24 24 24 23 22 21 20 20 20 19 19 19 19 18 18 18 18 18 18 18 18 18 18 18
16 15 15 15 14 14 14 14 14 14 15 16 18 19 20 21 22 22 23 23 23 22 21 21 20 20 20 19 18 17 17 16 16 16 16 16 16 16 16 17 17 18 18
18 18 18 17 17 17 17 17 17 16 16 15 16 16 17 17 18 19 19 20 20 20 19 18 18 18 18 17 16 15 14 13 13 13 13 14 14 13 14 14 16 17 17
20 20 20 20 20 20 20 20 19 18 17 15 14 13 13 13 14 14 14 15 16 16 16 15 15 15 15 15 14 13 12 11 11 11 10 11 11 11 12 13 14 15 16
21 22 22 22 22 22 21 22 21 20 18 17 16 14 13 12 12 12 11 11 11 12 12 12 12 13 13 14 13 12 11 10 9 8 9 9 10 10 11 11 12 14 15
21 22 22 23 23 23 22 23 24 22 21 20 18 17 15 14 12 11 9 7 7 7 7 7 8 10 11 12 11 10 9 8 7 7 8 8 8 9 10 10 12 13 15
20 21 22 22 23 24 24 24 25 25 23 23 22 21 19 17 14 12 9 6 2 1 3 5 6 7 8 9 8 8 6 5 5 5 5 6 6 7 9 10 12 14 15
20 21 21 22 23 24 24 25 26 26 26 26 26 25 24 22 20 17 14 12 10 8 8 8 7 7 7 7 6 5 5 3 2 2 3 4 5 7 8 10 12 13 15
20 20 20 21 22 23 24 25 26 27 28 28 28 28 27 26 25 23 21 19 17 15 13 12 10 9 8 7 6 5 3 2 1 1 2 3 5 6 8 9 11 13 14
18 19 19 20 21 22 22 23 25 25 27 28 28 29 29 28 28 26 25 23 21 20 18 17 15 13 12 11 9 8 7 6 5 4 5 5 6 7 8 9 11 13 14
17 17 18 18 20 20 20 21 22 23 24 26 27 27 28 28 28 27 26 25 24 22 21 20 18 17 15 14 12 11 9 8 8 8 8 8 8 8 9 10 12 13 15
16 17 17 17 18 18 19 19 20 20 21 22 23 24 24 25 25 25 25 24 23 22 21 20 19 18 16 15 14 12 11 10 9 9 9 9 9 10 10 11 13 14 16
15 16 17 17 17 17 17 17 18 18 18 18 19 20 20 21 21 22 22 22 21 21 20 19 18 16 15 14 14 13 12 11 11 10 10 10 10 11 12 13 14 16 17
13 14 15 16 16 17 17 17 17 17 16 16 16 16 17 17 18 18 18 18 18 18 17 16 15 14 13 12 12 11 11 11 11 11 11 11 11 12 13 14 15 17 18
11 12 13 15 15 16 16 16 16 16 15 15 14 14 14 15 15 15 15 15 15 15 15 15 14 14 13 12 11 11 11 11 11 11 11 12 12 13 14 15 16 17 18
9 10 11 13 14 15 15 15 15 15 15 14 13 13 13 13 13 13 14 14 14 14 14 14 14 14 14 13 13 12 12 12 12 12 12 13 13 14 15 15 16 17 18
8 8 9 10 12 13 14 14 14 14 14 13 13 12 11 11 12 12 12 12 13 13 13 14 14 14 14 14 14 14 14 14 14 14 14 14 14 14 15 16 16 17 18
8 8 8 8 9 10 12 13 13 13 13 12 12 11 10 10 10 10 10 11 11 11 11 12 12 13 13 13 14 14 15 15 15 15 15 15 15 15 16 16 17 18 19
Wind_Direction
263 261 260 258 258 258 259 261 262 263 266 266 265 258 254 250 247 244 246 252 258 262 265 267 270 273 275 277 277 279 279 279 280 281 281 277 271 263 259 256 254 251 248
259 257 256 255 256 259 260 259 259 258 259 257 254 249 245 244 244 249 254 258 259 261 264 267 269 271 273 274 274 276 277 277 278 278 279 275 271 264 259 256 255 252 250
259 257 254 254 256 256 253 248 244 244 242 238 236 241 248 252 255 257 259 261 261 263 265 267 268 269 270 271 272 273 274 275 276 275 275 273 271 268 260 256 255 252 251
60 75 70 359 294 241 233 259 254 249 246 244 246 253 258 262 263 264 264 264 265 266 266 267 267 267 268 269 269 271 271 272 272 272 272 273 273 271 261 257 255 254 253
61 62 54 46 39 27 7 328 301 280 269 267 261 261 264 266 268 269 268 266 265 265 266 267 268 269 268 268 268 269 270 270 270 270 271 272 274 274 266 259 257 256 256
55 51 45 37 25 10 352 329 312 296 287 280 275 271 268 266 266 265 266 266 267 267 267 268 268 269 269 269 268 268 270 270 268 268 269 271 272 274 274 269 262 260 260
42 37 30 19 4 346 331 318 307 298 292 285 280 276 274 272 269 268 268 269 268 268 268 268 268 269 270 269 268 269 269 270 270 269 268 269 273 272 274 275 272 270 269
34 26 18 8 358 347 335 323 312 303 296 291 286 282 278 275 273 272 271 270 269 268 268 267 267 267 266 266 265 266 268 269 270 270 270 271 271 273 274 274 271 271 272
31 26 19 11 4 355 344 333 322 311 301 295 289 285 280 277 275 273 270 268 267 266 265 264 262 260 260 260 261 262 265 267 268 270 272 272 273 272 274 276 276 274 274
37 33 27 22 16 8 360 350 340 328 315 305 297 290 285 280 276 273 271 268 266 264 263 260 258 257 256 257 259 260 262 265 266 267 270 273 274 274 275 276 278 279 278
39 34 29 24 19 13 7 0 353 345 335 324 312 303 296 290 284 278 273 269 265 263 260 257 254 253 252 251 252 253 256 260 262 265 269 271 275 277 277 279 280 281 282
38 33 29 26 22 18 14 10 6 1 357 352 343 330 317 308 299 292 284 274 267 262 258 254 251 247 242 238 242 246 250 255 261 263 269 273 279 282 282 282 284 285 286
35 31 28 25 23 21 20 18 15 12 10 7 4 357 348 337 325 313 300 287 273 263 255 248 242 238 232 229 233 236 242 247 255 262 272 278 283 287 289 291 293 294 295
32 29 28 27 26 25 24 23 22 21 20 18 15 10 4 357 350 343 331 310 289 268 248 233 221 218 218 220 222 226 232 241 254 267 276 282 288 292 297 301 303 304 305
30 28 29 29 28 28 28 28 28 29 29 28 26 23 21 17 14 12 11 11 13 152 179 185 186 190 193 198 204 210 221 238 257 273 281 287 295 302 306 309 311 313 313
29 30 30 30 29 30 31 32 34 35 35 35 34 35 34 34 37 42 49 60 74 91 108 124 137 147 156 165 171 182 197 216 245 280 298 306 312 317 321 322 323 324 325
29 30 31 31 31 33 35 36 38 40 40 40 40 41 42 45 49 54 60 67 74 81 90 100 108 115 119 124 129 136 140 140 120 28 6 357 351 346 343 340 339 338 338
28 29 30 31 32 34 35 37 38 40 41 42 43 45 47 50 54 58 62 66 71 75 81 87 92 96 98 100 100 98 95 90 79 61 42 26 16 10 6 2 359 356 353
28 29 29 30 31 32 34 36 38 39 41 43 45 48 50 52 56 59 62 65 69 72 76 80 83 85 87 87 87 85 81 76 69 59 51 42 35 28 20 14 9 5 2
27 28 29 28 28 29 31 33 35 37 40 42 45 47 50 53 55 57 60 64 66 69 72 75 78 80 80 80 79 76 72 67 61 54 47 40 33 26 21 17 13 10 8
24 26 28 28 27 27 28 30 32 34 36 39 42 45 48 50 53 55 59 61 64 67 69 70 72 73 73 72 70 67 63 58 54 48 42 36 30 25 20 16 13 11 10
19 21 23 24 25 25 27 29 30 31 32 35 38 41 44 47 49 51 54 57 60 62 64 65 65 65 65 64 61 58 54 49 44 38 33 29 25 20 17 15 13 12 10
9 13 15 17 19 21 23 25 27 28 29 31 34 37 40 43 45 48 50 53 55 57 58 58 58 58 57 56 53 49 45 40 36 32 29 27 23 20 18 16 14 13 12
353 359 5 9 13 17 19 22 24 26 27 28 30 33 36 37 40 42 45 48 51 52 53 54 54 55 54 53 51 47 44 40 37 35 32 28 24 21 18 17 14 12 11
331 339 348 357 4 9 13 16 19 22 24 25 26 28 31 33 35 38 40 42 45 48 49 51 52 52 52 51 51 49 47 44 41 38 35 31 28 24 21 18 16 13 12
304 313 324 336 347 356 3 8 12 16 18 20 21 23 25 28 31 33 35 37 40 43 45 47 50 51 50 50 49 48 46 44 41 38 35 31 28 25 22 19 16 14 13
Height
5786 5787 5787 5788 5789 5791 5792 5793 5795 5796 5796 5797 5798 5798 5799 5800 5801 5803 5806 5808 5810 5811 5813 5814 5815 5815 5815 5815 5815 5815 5815 5816 5816 5815 5815 5816 5816 5816 5816 5817 5819 5820 5821
5781 5782 5782 5783 5784 5785 5786 5787 5788 5789 5790 5791 5791 5793 5794 5795 5797 5799 5801 5802 5804 5805 5806 5807 5808 5808 5809 5809 5809 5809 5810 5810 5810 5810 5810 5810 5811 5811 5811 5812 5813 5815 5816
5779 5779 5780 5780 5781 5782 5782 5783 5783 5784 5786 5787 5788 5789 5791 5792 5794 5795 5796 5797 5799 5800 5800 5801 5802 5803 5803 5803 5803 5804 5804 5804 5805 5805 5805 5805 5805 5806 5806 5807 5808 5809 5810
5779 5779 5780 5780 5780 5781 5781 5781 5782 5783 5785 5786 5786 5787 5788 5789 5790 5791 5792 5792 5793 5794 5794 5795 5796 5797 5797 5798 5798 5798 5798 5798 5799 5800 5800 5800 5800 5800 5801 5801 5802 5803 5805
5781 5781 5781 5781 5780 5781 5781 5781 5782 5782 5783 5784 5784 5785 5785 5786 5786 5786 5786 5787 5788 5788 5789 5789 5790 5791 5791 5792 5792 5792 5793 5793 5794 5794 5795 5795 5795 5795 5795 5796 5797 5797 5798
5783 5783 5782 5782 5782 5782 5781 5781 5781 5781 5781 5781 5781 5781 5781 5781 5780 5780 5780 5781 5781 5782 5783 5783 5784 5785 5785 5786 5786 5786 5787 5788 5788 5789 5790 5790 5790 5790 5790 5791 5791 5792 5793
5785 5784 5784 5783 5782 5782 5781 5780 5779 5778 5777 5777 5776 5776 5775 5775 5774 5774 5774 5774 5775 5775 5776 5777 5778 5779 5779 5780 5780 5781 5781 5782 5783 5784 5784 5785 5785 5785 5786 5786 5787 5788 5788
5787 5785 5784 5783 5782 5781 5779 5778 5776 5775 5773 5772 5770 5770 5769 5768 5767 5767 5767 5767 5767 5768 5769 5770 5772 5773 5773 5773 5774 5775 5776 5777 5777 5778 5779 5780 5780 5780 5781 5782 5782 5783 5783
5788 5786 5785 5783 5781 5779 5777 5775 5773 5771 5768 5766 5765 5763 5762 5761 5760 5760 5760 5760 5760 5761 5762 5763 5765 5765 5766 5767 5768 5770 5771 5772 5772 5773 5773 5774 5775 5775 5776 5777 5777 5778 5778
5789 5788 5786 5784 5781 5779 5776 5773 5770 5767 5764 5761 5759 5757 5755 5754 5753 5752 5752 5752 5752 5753 5754 5756 5757 5758 5760 5761 5763 5764 5766 5767 5768 5768 5769 5769 5770 5770 5771 5772 5772 5772 5772
5792 5789 5787 5784 5781 5778 5775 5771 5767 5763 5760 5756 5753 5751 5749 5747 5746 5745 5744 5744 5745 5746 5747 5749 5750 5752 5754 5755 5757 5759 5761 5762 5763 5764 5765 5766 5766 5766 5767 5767 5767 5767 5767
5795 5792 5789 5786 5782 5778 5774 5770 5766 5761 5757 5753 5750 5747 5744 5742 5740 5739 5738 5737 5738 5739 5740 5742 5744 5746 5748 5751 5753 5755 5757 5758 5760 5761 5762 5762 5763 5763 5763 5763 5763 5763 5763
5798 5795 5791 5788 5784 5779 5775 5771 5766 5762 5757 5753 5749 5745 5742 5739 5736 5734 5733 5732 5732 5733 5734 5736 5739 5741 5744 5746 5749 5752 5754 5755 5757 5758 5759 5759 5760 5760 5760 5760 5759 5759 5758
5801 5797 5794 5790 5786 5782 5778 5773 5768 5763 5759 5754 5749 5745 5741 5738 5734 5732 5730 5728 5728 5729 5730 5732 5734 5737 5740 5743 5746 5749 5751 5753 5754 5755 5756 5757 5757 5757 5757 5757 5756 5755 5754
5804 5800 5797 5793 5790 5785 5781 5776 5771 5766 5761 5756 5752 5747 5742 5738 5734 5730 5728 5726 5726 5727 5728 5731 5733 5736 5739 5742 5745 5747 5750 5751 5753 5753 5754 5755 5755 5755 5755 5754 5753 5752 5751
5807 5803 5800 5797 5793 5789 5785 5780 5776 5770 5765 5760 5755 5750 5745 5740 5735 5732 5730 5728 5728 5729 5730 5732 5734 5737 5740 5742 5745 5747 5749 5750 5752 5752 5753 5753 5753 5753 5753 5752 5751 5749 5748
5810 5807 5804 5800 5797 5793 5789 5785 5780 5776 5771 5766 5761 5756 5750 5746 5742 5738 5736 5734 5734 5734 5735 5736 5738 5740 5742 5744 5746 5748 5749 5750 5751 5752 5752 5752 5752 5752 5751 5750 5749 5747 5745
5813 5810 5807 5804 5801 5797 5793 5790 5786 5781 5777 5772 5768 5763 5758 5754 5750 5747 5745 5743 5742 5741 5741 5742 5743 5744 5746 5747 5749 5750 5751 5752 5752 5753 5753 5753 5752 5752 5751 5750 5748 5746 5743
5816 5813 5810 5807 5804 5801 5798 5794 5791 5787 5783 5779 5775 5771 5767 5763 5760 5757 5754 5753 5751 5750 5749 5749 5750 5750 5751 5752 5752 5753 5754 5754 5754 5754 5754 5754 5753 5752 5751 5750 5748 5745 5743
5818 5816 5813 5810 5807 5805 5802 5798 5795 5792 5789 5786 5782 5778 5775 5772 5769 5766 5764 5762 5760 5759 5758 5757 5757 5757 5757 5757 5757 5757 5757 5757 5757 5757 5756 5756 5755 5754 5752 5750 5748 5745 5742
5821 5818 5816 5813 5811 5808 5805 5802 5799 5796 5794 5791 5788 5785 5782 5779 5777 5774 5772 5770 5768 5767 5765 5764 5764 5763 5763 5763 5762 5762 5761 5761 5760 5760 5759 5758 5756 5755 5753 5751 5748 5745 5742
5823 5821 5818 5816 5813 5811 5808 5805 5802 5800 5797 5795 5793 5790 5788 5785 5783 5781 5778 5776 5775 5773 5772 5770 5769 5769 5768 5767 5766 5766 5765 5764 5763 5762 5761 5759 5758 5756 5754 5751 5748 5745 5742
5824 5822 5820 5818 5815 5813 5810 5808 5805 5803 5800 5798 5796 5794 5792 5790 5788 5786 5784 5782 5780 5778 5777 5775 5774 5773 5771 5770 5769 5768 5767 5766 5765 5764 5762 5761 5759 5757 5754 5752 5749 5746 5742
5824 5823 5821 5819 5817 5815 5813 5810 5808 5805 5803 5801 5799 5797 5795 5793 5791 5790 5788 5786 5784 5782 5781 5779 5778 5776 5775 5774 5772 5771 5769 5768 5766 5765 5763 5762 5760 5757 5755 5752 5749 5746 5743
5823 5822 5821 5820 5818 5816 5814 5812 5810 5808 5805 5803 5801 5799 5798 5796 5794 5793 5791 5789 5788 5786 5785 5783 5781 5780 5778 5777 5775 5774 5772 5770 5768 5766 5765 5763 5760 5758 5755 5753 5750 5746 5743
5822 5821 5820 5819 5818 5817 5815 5813 5811 5809 5807 5805 5803 5801 5800 5798 5797 5795 5794 5792 5791 5789 5788 5786 5785 5783 5782 5780 5778 5777 5775 5773 5771 5769 5766 5764 5761 5759 5756 5753 5750 5746 5743